Weather History for Zephyrhills, FL

Change the Weather History Date:

Thursday, January 24, 2013

  Actual Average (KPCM) Record (KPCM)
Temperature  
Mean Temperature 53 °F -  
Max Temperature 71 °F 73 °F 85 °F (1962)
Min Temperature 35 °F 48 °F 27 °F (1960)
Degree Days  
Heating Degree Days 12    
Growing Degree Days 3 (Base 50)    
Moisture  
Dew Point 41 °F    
Average Humidity 71    
Maximum Humidity 100    
Minimum Humidity 31    
Precipitation  
Precipitation 0.00 in - - ()
Sea Level Pressure  
Sea Level Pressure 30.31 in    
Wind  
Wind Speed 2 mph (NW)    
Max Wind Speed 12 mph    
Max Gust Speed 20 mph    
Visibility 9 miles    
Events Fog    
Averages and records for this station are not official NWS values.
T = Trace of Precipitation, MM = Missing Value Source: NWS Daily Summary

Daily Weather History Graph

Daily Weather History Graph

Search for Another Location

Airport:

Trip Planner

Search our weather history database for the weather conditions in past years. The results will help you decide how hot, cold, wet, or windy it might be!

Date:

Astronomy

Jan. 24, 2013 Rise Set
Actual Time 7:19 AM EST 6:02 PM EST
Civil Twilight 6:54 AM EST 6:27 PM EST
Nautical Twilight 6:26 AM EST 6:55 PM EST
Astronomical Twilight 5:58 AM EST 7:23 PM EST
Moon 4:05 PM EST (1/24) 5:13 AM EST (1/24)
Length of Visible Light 11h 32m
Length of Day
10h 42m
Waxing Gibbous, 94% of the Moon is Illuminated
Jan 24
Waxing Gibbous
Jan 26
Full
Feb 3
Last Quarter
Feb 10
New
Feb 17
First Quarter

Hourly Weather History & Observations

Time (EST) Temp. Windchill Dew Point Humidity Pressure Visibility Wind Dir Wind Speed Gust Speed Precip Events Conditions
12:15 AM 39.2 °F - 35.6 °F 87% 30.34 in 10.0 mi Calm Calm - N/A   Clear
12:35 AM 39.2 °F - 35.6 °F 87% 30.33 in 10.0 mi Calm Calm - N/A   Clear
12:55 AM 37.4 °F - 33.8 °F 87% 30.32 in 10.0 mi Calm Calm - N/A   Clear
1:15 AM 37.4 °F - 35.6 °F 93% 30.31 in 10.0 mi Calm Calm - N/A   Clear
1:35 AM 37.4 °F - 33.8 °F 87% 30.31 in 10.0 mi Calm Calm - N/A   Clear
1:55 AM 37.4 °F - 33.8 °F 87% 30.31 in 10.0 mi Calm Calm - N/A   Clear
2:15 AM 37.4 °F - 35.6 °F 93% 30.31 in 10.0 mi Calm Calm - N/A   Clear
2:35 AM 37.4 °F - 33.8 °F 87% 30.30 in 10.0 mi Calm Calm - N/A   Clear
2:55 AM 37.4 °F - 35.6 °F 93% 30.30 in 10.0 mi Calm Calm - N/A   Clear
3:15 AM 35.6 °F - 33.8 °F 93% 30.30 in 10.0 mi Calm Calm - N/A   Clear
3:35 AM 35.6 °F 32.8 °F 33.8 °F 93% 30.30 in 10.0 mi North 3.5 mph - N/A   Clear
3:55 AM 35.6 °F 31.7 °F 33.8 °F 93% 30.30 in 10.0 mi North 4.6 mph - N/A   Clear
4:15 AM 35.6 °F 32.8 °F 33.8 °F 93% 30.30 in 10.0 mi North 3.5 mph - N/A   Clear
4:35 AM 35.6 °F - 35.6 °F 100% 30.30 in 10.0 mi Calm Calm - N/A   Clear
4:55 AM 35.6 °F - 35.6 °F 100% 30.31 in 10.0 mi Calm Calm - N/A   Clear
5:15 AM 37.4 °F 33.8 °F 35.6 °F 93% 30.31 in 10.0 mi North 4.6 mph - N/A   Clear
5:35 AM 37.4 °F 34.9 °F 35.6 °F 93% 30.31 in 10.0 mi NNE 3.5 mph - N/A   Clear
5:55 AM 39.2 °F - 37.4 °F 93% 30.31 in 10.0 mi Calm Calm - N/A   Clear
6:15 AM 37.4 °F - 35.6 °F 93% 30.31 in 10.0 mi Calm Calm - N/A   Clear
6:35 AM 37.4 °F - 35.6 °F 93% 30.32 in 10.0 mi Calm Calm - N/A   Clear
6:55 AM 37.4 °F - 35.6 °F 93% 30.32 in 5.0 mi Calm Calm - N/A   Clear
7:15 AM 37.4 °F - 35.6 °F 93% 30.32 in 7.0 mi Calm Calm - N/A   Clear
7:35 AM 37.4 °F - 35.6 °F 93% 30.33 in 5.0 mi Calm Calm - N/A   Clear
7:55 AM 37.4 °F - 37.4 °F 100% 30.33 in 7.0 mi Calm Calm - N/A   Clear
8:15 AM 41.0 °F - 41.0 °F 100% 30.34 in 10.0 mi Calm Calm - N/A   Clear
8:35 AM 44.6 °F - 42.8 °F 93% 30.35 in 10.0 mi Calm Calm - N/A   Clear
8:55 AM 46.4 °F - 44.6 °F 93% 30.35 in 10.0 mi Calm Calm - N/A   Clear
9:15 AM 51.8 °F - 44.6 °F 76% 30.36 in 10.0 mi Calm Calm - N/A   Clear
9:35 AM 55.4 °F - 44.6 °F 67% 30.36 in 10.0 mi North 3.5 mph - N/A   Clear
9:55 AM 59.0 °F - 42.8 °F 55% 30.36 in 10.0 mi NNW 6.9 mph - N/A   Clear
10:15 AM 62.6 °F - 41.0 °F 45% 30.36 in 10.0 mi North 5.8 mph - N/A   Clear
10:35 AM 64.4 °F - 41.0 °F 42% 30.36 in 10.0 mi North 4.6 mph - N/A   Clear
10:55 AM 68.0 °F - 41.0 °F 37% 30.36 in 10.0 mi WNW 5.8 mph - N/A   Clear
11:15 AM 68.0 °F - 39.2 °F 35% 30.35 in 10.0 mi WNW 6.9 mph - N/A   Clear
11:35 AM 69.8 °F - 37.4 °F 31% 30.35 in 10.0 mi North 8.1 mph - N/A   Clear
11:55 AM 69.8 °F - 39.2 °F 33% 30.34 in 10.0 mi NNW 8.1 mph - N/A   Clear
12:15 PM 71.6 °F - 39.2 °F 31% 30.33 in 10.0 mi NW 9.2 mph - N/A   Clear
12:35 PM 69.8 °F - 37.4 °F 31% 30.32 in 10.0 mi NNW 5.8 mph - N/A   Clear
12:55 PM 71.6 °F - 39.2 °F 31% 30.30 in 10.0 mi NNW 8.1 mph - N/A   Clear
1:15 PM 71.6 °F - 41.0 °F 33% 30.29 in 10.0 mi NNW 9.2 mph - N/A   Clear
1:35 PM 71.6 °F - 41.0 °F 33% 30.28 in 10.0 mi NW 8.1 mph 19.6 mph N/A   Scattered Clouds
1:55 PM 69.8 °F - 41.0 °F 35% 30.28 in 10.0 mi NW 5.8 mph 9.2 mph N/A   Clear
2:15 PM 71.6 °F - 41.0 °F 33% 30.27 in 10.0 mi NNW 9.2 mph - N/A   Clear
2:35 PM 71.6 °F - 41.0 °F 33% 30.26 in 10.0 mi NW 11.5 mph - N/A   Scattered Clouds
2:55 PM 71.6 °F - 41.0 °F 33% 30.26 in 10.0 mi NW 9.2 mph - N/A   Clear
3:15 PM 71.6 °F - 41.0 °F 33% 30.27 in 10.0 mi WNW 11.5 mph - N/A   Clear
3:35 PM 71.6 °F - 41.0 °F 33% 30.27 in 10.0 mi WNW 6.9 mph 17.3 mph N/A   Clear
3:55 PM 69.8 °F - 42.8 °F 38% 30.27 in 10.0 mi NW 9.2 mph - N/A   Scattered Clouds
4:15 PM 69.8 °F - 44.6 °F 40% 30.27 in 10.0 mi NW 9.2 mph - N/A   Scattered Clouds
4:35 PM 69.8 °F - 44.6 °F 40% 30.27 in 10.0 mi NW 8.1 mph - N/A   Clear
4:55 PM 68.0 °F - 46.4 °F 46% 30.28 in 10.0 mi NW 8.1 mph - N/A   Clear
5:15 PM 68.0 °F - 46.4 °F 46% 30.27 in 10.0 mi WNW 9.2 mph - N/A   Clear
5:35 PM 64.4 °F - 46.4 °F 52% 30.27 in 10.0 mi WNW 8.1 mph - N/A   Clear
5:55 PM 64.4 °F - 46.4 °F 52% 30.27 in 10.0 mi West 6.9 mph - N/A   Clear
6:15 PM 62.6 °F - 46.4 °F 55% 30.28 in 10.0 mi WNW 6.9 mph - N/A   Clear
6:35 PM 60.8 °F - 48.2 °F 63% 30.29 in 10.0 mi West 6.9 mph - N/A   Clear
6:55 PM 59.0 °F - 48.2 °F 67% 30.29 in 10.0 mi West 5.8 mph - N/A   Clear
7:15 PM 57.2 °F - 48.2 °F 72% 30.30 in 10.0 mi West 3.5 mph - N/A   Clear
7:35 PM 55.4 °F - 46.4 °F 72% 30.30 in 10.0 mi West 4.6 mph - N/A   Clear
7:55 PM 53.6 °F - 46.4 °F 77% 30.30 in 10.0 mi Calm Calm - N/A   Clear
8:35 PM 51.8 °F - 48.2 °F 88% 30.30 in 10.0 mi Calm Calm - N/A   Clear
8:55 PM 50.0 °F - 46.4 °F 87% 30.30 in 10.0 mi Calm Calm - N/A   Clear
9:15 PM 50.0 °F - 46.4 °F 87% 30.31 in 10.0 mi Calm Calm - N/A   Clear
9:35 PM 50.0 °F - 48.2 °F 94% 30.31 in 7.0 mi Calm Calm - N/A   Clear
9:55 PM 46.4 °F - 46.4 °F 100% 30.31 in 5.0 mi Calm Calm - N/A   Clear
10:15 PM 46.4 °F - 46.4 °F 100% 30.31 in 7.0 mi Calm Calm - N/A   Clear
10:35 PM 46.4 °F - 46.4 °F 100% 30.31 in 7.0 mi Calm Calm - N/A   Clear
10:55 PM 46.4 °F - 46.4 °F 100% 30.31 in 5.0 mi Calm Calm - N/A   Clear
11:15 PM 46.4 °F - 44.6 °F 93% 30.31 in 5.0 mi Calm Calm - N/A   Clear
11:35 PM 44.6 °F - 44.6 °F 100% 30.32 in 4.0 mi Calm Calm - N/A   Clear
11:55 PM 44.6 °F - 44.6 °F 100% 30.32 in 0.5 mi Calm Calm - N/A Fog Fog